Wind_Speed
14 13 13 13 14 17 17 18 18 18 18 19 20 21 20 19 17 16 16 17 19 19 17 17 17 17 17 15 13 13 13 14 14 15 15 16 16 16 17 18 18 19 19 19 19 19 20 19 19 19 18 18 17 17 17 17 17 17 17 17 17 17 18 18 18 19 19 19 20 20 19 19 19 19 18 17 16 15 16 16 16 16 16 16 16
13 14 14 13 15 17 18 18 19 19 19 19 20 21 19 18 16 15 16 18 19 18 17 16 16 17 16 15 14 13 12 13 14 14 15 15 15 16 17 17 18 18 18 18 18 19 19 18 18 17 17 17 16 16 15 15 15 15 15 15 16 16 17 17 18 18 18 19 19 19 18 18 19 19 19 18 17 17 17 17 17 17 17 17 16
13 14 14 15 16 17 18 18 18 19 19 19 19 19 18 16 15 15 16 19 20 18 16 16 15 16 16 14 13 13 12 13 13 13 14 15 15 16 16 17 17 17 17 17 17 17 17 17 16 16 16 15 15 14 14 13 14 14 14 15 15 15 16 17 18 18 18 19 19 19 18 17 18 19 19 19 19 19 18 18 18 17 17 18 17
13 14 15 16 17 17 18 18 18 18 19 18 18 18 17 15 15 15 16 18 19 17 16 16 15 15 15 13 13 12 12 13 13 13 13 14 15 16 16 17 17 17 16 16 16 16 16 15 15 15 14 14 13 12 12 12 12 13 13 14 15 15 16 16 17 18 18 18 19 19 17 16 17 18 19 19 19 19 19 19 19 18 18 18 17
15 15 15 16 17 17 18 18 17 17 17 17 17 17 17 16 15 15 15 17 17 16 16 16 15 14 13 12 12 12 11 12 13 12 12 14 15 16 16 16 16 16 16 16 15 15 14 14 14 14 13 13 12 11 11 11 11 12 13 14 14 15 16 16 17 18 18 18 18 18 16 16 17 17 17 17 18 18 19 19 19 19 18 18 17
16 15 15 17 17 17 17 18 17 17 17 18 18 17 16 16 15 14 14 16 16 15 15 15 15 14 13 11 12 11 11 13 13 12 12 13 14 16 16 15 15 15 15 15 14 14 13 13 13 12 12 12 11 10 10 11 11 12 13 14 14 15 16 16 16 17 18 17 18 17 15 15 16 16 16 16 16 17 18 19 19 19 18 17 17
15 15 16 17 17 17 18 18 17 17 18 18 17 15 14 14 14 13 14 16 16 15 15 14 14 15 13 12 11 10 12 13 13 11 12 13 14 15 15 15 15 14 14 14 13 13 12 12 11 10 10 10 10 10 10 11 12 13 14 14 15 15 16 16 15 16 17 17 17 16 14 14 15 15 15 15 15 16 17 18 18 18 18 17 16
16 16 17 17 17 17 18 18 18 18 18 17 15 14 13 13 14 14 14 15 16 15 14 13 13 14 13 12 11 11 12 13 12 11 12 13 14 14 15 15 15 14 13 13 12 11 11 10 9 9 8 7 8 8 10 11 12 13 14 14 15 16 16 15 15 16 17 16 16 15 13 13 14 14 14 14 15 16 17 18 18 18 17 17 16
15 16 17 18 18 17 17 17 18 19 18 16 15 15 14 13 14 13 14 15 15 15 14 13 13 13 13 12 12 12 12 12 12 10 11 13 14 14 14 15 14 13 13 12 10 9 9 9 8 7 7 6 7 8 10 11 13 14 14 15 15 16 16 15 14 15 17 16 15 13 12 13 13 13 14 14 14 15 17 17 18 17 17 16 16
16 17 18 19 18 17 17 17 18 19 19 17 16 15 15 14 13 12 13 15 16 15 14 12 12 12 13 12 11 12 12 12 12 11 11 13 14 13 13 14 14 13 11 10 9 8 7 7 7 6 6 7 8 10 11 12 13 14 15 16 16 17 16 15 14 14 16 17 14 12 12 13 13 13 14 14 15 16 16 17 17 17 16 15 14
16 17 18 19 19 19 18 18 19 19 18 17 16 15 14 13 13 11 12 13 15 15 13 11 11 11 11 12 11 11 12 12 12 11 11 11 13 13 13 13 14 13 11 9 7 6 5 5 6 5 5 6 8 10 11 12 13 14 15 16 17 18 17 16 14 14 15 16 15 13 12 13 14 13 13 14 15 16 16 17 17 17 16 13 13
13 14 16 17 18 19 19 19 18 17 17 16 15 14 13 13 13 12 12 12 13 14 13 11 10 10 10 11 10 10 11 12 11 11 10 10 11 12 12 12 12 12 11 8 7 6 4 4 4 4 4 6 8 9 9 11 12 13 14 15 17 18 18 17 16 14 15 16 16 14 12 13 14 13 13 14 15 16 16 17 17 17 15 12 11
14 13 15 16 16 17 17 18 17 16 16 16 16 15 15 14 13 13 12 11 11 12 12 10 9 9 9 10 10 9 10 11 11 10 10 10 11 12 12 11 10 10 9 8 6 5 4 2 2 3 4 5 7 9 10 11 12 13 14 15 16 17 17 18 18 16 16 16 16 15 12 12 14 14 14 15 15 16 16 17 17 16 15 11 9
16 15 16 17 17 17 17 18 19 18 17 16 16 15 15 14 12 12 11 11 11 11 11 9 8 8 8 9 9 9 9 10 10 9 8 9 10 11 11 10 10 9 8 7 6 4 3 1 3 5 6 6 8 10 11 12 13 14 14 15 15 16 16 17 18 18 17 17 16 16 13 12 13 14 15 15 15 15 16 17 17 17 15 11 8
14 15 15 16 16 17 18 19 19 19 18 16 15 14 13 12 11 11 11 10 10 11 10 9 8 8 7 7 7 7 8 9 9 8 6 7 9 9 9 9 8 8 6 5 5 4 1 1 3 5 6 7 9 10 11 12 14 15 15 15 15 15 16 17 18 19 19 18 17 16 15 13 13 14 15 15 15 15 16 16 16 17 15 10 7
13 13 13 13 14 14 15 16 16 16 15 15 14 12 11 11 10 10 10 10 10 10 9 8 7 8 7 7 7 7 7 7 8 8 5 6 7 7 7 6 6 6 5 4 3 2 1 1 2 3 6 7 9 10 12 13 15 15 15 15 16 16 17 17 17 19 19 19 17 16 15 14 13 13 14 14 14 15 15 16 16 16 15 11 7
13 12 11 12 12 12 13 13 13 13 13 13 12 12 11 10 9 9 10 10 10 10 7 6 6 7 7 7 7 7 7 7 7 6 5 5 6 5 4 3 2 2 2 2 1 0 1 2 4 4 6 8 9 11 13 15 16 16 16 17 17 17 18 18 18 18 19 19 18 16 16 14 13 14 14 13 13 14 15 15 15 16 15 12 7
12 12 11 11 12 12 12 12 12 12 12 12 11 10 10 9 9 9 10 9 11 11 7 6 7 8 7 7 8 8 7 7 6 4 4 5 6 6 5 3 1 0 1 0 1 2 2 4 5 6 7 8 10 12 13 15 16 16 17 18 18 18 19 19 19 18 19 20 18 16 15 15 14 14 13 12 12 14 14 14 15 16 16 13 8
12 12 12 12 12 12 11 12 11 11 11 11 10 10 9 9 9 9 10 9 10 10 9 7 7 7 7 6 7 8 7 6 6 4 4 5 6 6 6 4 2 1 1 2 2 3 4 5 6 8 8 9 10 11 12 14 15 16 17 18 18 19 19 19 19 18 18 19 19 16 15 15 14 14 12 11 11 13 13 13 14 16 16 14 9
11 13 12 12 13 12 12 12 11 11 11 11 10 10 9 9 9 9 10 10 9 9 8 7 6 6 6 6 7 8 7 7 6 5 5 5 6 6 5 4 3 2 1 2 3 4 5 6 7 9 10 10 11 12 13 14 15 16 17 18 19 19 19 19 19 18 18 19 19 16 15 14 14 13 12 10 10 12 12 13 14 16 17 15 11
11 12 12 12 12 12 12 12 12 11 11 11 11 10 9 8 9 9 10 10 10 9 7 5 5 6 6 7 7 8 8 7 6 5 5 4 5 5 4 4 3 1 0 1 2 3 5 6 8 9 9 10 11 12 13 14 15 16 17 18 19 19 19 18 18 18 18 18 18 16 14 14 14 13 11 10 10 11 11 12 14 15 17 16 13
11 12 12 12 12 12 12 12 11 11 11 11 10 10 10 9 9 9 9 9 9 9 7 6 5 6 6 7 7 7 7 7 6 5 5 4 4 5 5 4 3 1 2 2 2 1 4 7 8 9 10 10 11 11 12 13 15 17 17 17 18 19 19 17 17 17 17 18 17 15 13 13 13 12 10 9 9 10 10 10 12 15 17 17 14
12 12 12 12 12 12 11 11 11 11 10 11 11 11 11 10 10 10 10 9 9 8 7 6 6 5 6 7 7 7 7 6 6 5 5 5 4 4 5 4 3 0 1 1 2 1 3 6 8 10 11 11 12 12 12 13 15 16 16 16 16 17 17 17 16 17 17 17 16 14 13 13 13 11 9 8 9 10 9 9 11 13 15 16 15
12 12 12 12 12 12 11 11 11 11 12 12 12 11 11 11 10 10 10 9 8 7 6 6 5 5 5 6 6 6 5 5 6 6 6 5 4 4 5 4 2 2 1 1 1 1 2 4 6 7 7 9 11 11 12 12 14 14 15 15 15 15 16 16 16 17 16 16 16 14 13 12 12 10 8 7 8 9 9 8 9 11 13 15 15
11 11 12 11 11 11 11 11 11 12 12 12 12 12 11 10 10 9 8 7 6 6 5 5 4 4 4 5 5 5 5 5 6 6 5 5 4 5 5 4 2 2 2 1 1 1 2 3 5 6 6 7 9 9 10 12 13 14 14 14 14 14 14 15 16 17 17 16 16 15 13 11 10 9 7 6 7 8 9 8 8 9 11 12 13
10 10 11 12 12 11 11 11 12 12 12 13 12 12 11 10 9 7 7 6 5 4 3 3 3 3 4 4 4 4 4 5 5 5 4 4 4 5 5 3 2 2 2 1 1 2 2 3 5 6 7 8 9 9 9 10 12 14 15 14 14 15 15 16 17 18 18 16 16 15 13 10 9 7 6 5 5 7 8 8 7 7 8 9 10
9 9 10 11 11 12 11 11 12 12 12 12 12 11 10 9 8 7 5 4 3 2 2 2 2 3 3 4 4 4 3 4 4 3 3 3 3 4 3 2 2 1 3 3 3 3 3 3 5 7 8 8 9 9 10 11 12 13 14 15 15 16 16 17 18 19 19 16 15 14 12 9 8 6 5 5 5 6 7 8 7 6 7 7 8
9 9 9 9 10 10 11 11 11 11 11 10 10 9 8 7 6 5 3 2 1 0 1 2 3 3 3 4 4 3 3 3 2 2 2 2 1 2 2 1 1 1 3 4 4 4 4 3 4 6 8 9 9 10 11 12 13 13 14 15 15 16 17 16 17 18 18 16 14 12 11 9 7 5 5 4 4 5 7 8 8 7 7 7 8
8 8 8 8 8 8 9 9 9 9 9 9 8 7 6 5 4 3 2 1 2 2 3 3 4 4 4 4 3 2 2 1 1 1 1 0 0 1 1 1 1 2 3 4 5 5 5 4 4 6 8 9 9 10 11 12 13 14 14 14 14 14 15 15 15 16 16 15 12 10 9 7 5 5 5 5 4 5 6 8 8 8 8 8 8
8 8 7 7 7 7 7 7 7 7 7 7 7 6 5 4 4 3 3 3 4 4 4 5 5 5 5 4 3 2 1 1 1 1 0 1 1 1 2 2 2 2 4 5 6 5 6 6 6 6 7 8 9 11 12 12 13 14 14 14 14 14 14 14 14 14 14 13 10 8 7 5 5 5 5 5 5 5 6 8 9 9 9 9 9
9 9 8 7 7 7 7 7 7 7 7 7 6 6 6 5 5 5 5 5 5 5 5 6 6 5 5 5 5 4 3 3 3 3 3 3 3 3 4 4 4 4 5 7 7 6 7 8 8 7 7 8 9 10 11 12 13 14 14 14 14 13 13 12 12 12 12 11 9 7 5 4 5 5 5 6 6 7 7 9 10 11 11 11 11
10 10 9 9 8 8 8 8 8 8 8 7 7 7 7 7 7 7 7 7 7 7 7 7 7 6 6 5 5 5 5 5 5 5 5 5 5 5 5 6 6 6 7 8 9 8 8 9 10 9 9 9 9 10 11 12 12 13 13 13 13 13 12 11 11 11 11 11 10 8 6 4 5 5 6 7 8 8 9 10 11 12 12 13 13
9 9 10 10 10 9 9 9 9 9 9 9 9 8 8 8 8 8 8 8 8 8 8 8 8 7 7 7 7 7 6 6 6 6 7 7 7 7 7 7 7 8 8 9 10 10 9 9 10 10 10 11 10 9 10 11 11 11 12 12 12 11 11 10 11 11 10 10 9 8 6 6 6 6 7 8 9 10 11 11 12 13 14 14 15
9 9 10 10 10 10 10 10 10 10 10 10 10 9 9 9 9 9 9 9 9 8 8 9 8 8 8 8 8 8 7 7 7 7 7 8 8 8 8 8 8 8 8 9 10 11 10 9 9 9 9 9 9 8 8 9 9 10 10 11 11 10 10 10 10 10 11 10 9 9 8 7 7 8 8 9 10 12 13 13 14 15 16 16 17
10 10 10 10 10 10 10 11 11 11 11 11 11 10 10 10 10 10 10 10 9 8 8 8 9 9 9 9 9 8 8 8 7 7 8 8 8 8 8 9 9 8 8 9 10 11 11 10 8 8 8 8 7 7 7 8 8 9 10 11 12 12 12 12 12 11 11 11 11 11 10 9 8 9 10 11 12 13 14 15 16 17 18 18 19
10 10 10 10 11 11 10 11 11 11 11 11 11 11 11 11 11 10 10 11 10 10 9 9 10 10 10 9 9 9 9 9 8 8 8 9 9 9 9 9 10 10 9 9 10 11 12 11 10 9 9 9 8 7 8 9 9 9 10 12 13 14 14 14 15 14 13 12 12 12 12 12 11 11 11 12 13 15 16 17 18 18 19 19 20
10 10 10 11 11 11 11 11 12 12 12 12 12 12 11 11 12 12 11 11 11 11 11 11 11 11 11 11 10 10 11 11 10 10 10 10 11 11 11 11 12 12 12 11 11 12 12 13 12 11 11 11 11 10 10 10 10 10 11 12 13 14 16 16 16 16 15 14 13 13 14 13 13 13 13 14 14 16 18 19 20 20 20 21 22
12 11 11 11 11 11 11 12 13 13 13 13 12 12 12 12 13 13 13 13 13 12 12 12 12 13 12 12 12 12 11 12 12 12 12 13 13 13 13 13 14 14 14 13 13 13 14 14 15 15 14 14 14 13 12 12 12 13 14 14 14 15 16 17 17 16 15 14 13 13 12 12 13 14 14 15 15 17 19 20 21 22 22 23 24
14 14 13 13 12 12 13 13 13 13 13 13 13 13 14 14 14 14 14 14 14 14 13 13 13 13 13 13 14 14 13 12 12 14 15 14 15 15 15 15 15 16 16 16 16 16 16 16 17 17 17 17 16 16 15 14 14 15 16 16 16 16 17 17 16 14 13 13 13 12 11 10 11 12 13 14 16 17 19 21 22 23 23 24 24
16 16 16 15 15 14 15 15 14 14 14 13 14 14 15 15 15 15 15 15 15 15 15 15 15 15 14 14 15 15 14 12 12 14 16 16 16 16 16 16 17 18 18 18 18 17 18 18 18 18 18 18 18 17 17 16 16 16 16 16 16 17 17 17 15 12 11 11 12 12 11 10 10 11 11 13 14 16 18 20 22 24 24 24 24
19 18 18 18 17 17 17 17 16 15 15 15 15 16 16 16 16 16 17 17 17 17 17 17 17 17 16 16 16 15 15 14 15 15 17 17 17 17 17 18 19 19 19 18 18 18 18 18 18 19 19 19 18 18 17 17 16 16 15 14 14 15 16 17 16 12 10 9 11 13 12 11 11 12 12 12 13 14 16 17 19 20 22 23 23
20 20 20 20 20 20 19 19 17 17 17 17 18 18 18 18 18 18 18 18 18 19 19 19 19 19 18 17 16 16 16 17 17 17 17 19 18 18 18 19 19 19 19 19 18 18 18 19 19 19 20 19 19 18 18 17 16 15 14 13 13 13 14 16 18 16 11 9 10 14 14 13 12 13 14 14 14 15 15 17 18 18 19 20 22
21 21 21 21 21 21 20 19 18 19 20 20 19 19 20 20 20 20 20 20 20 21 21 20 20 20 19 18 17 17 17 18 18 18 19 20 20 19 19 20 20 20 19 19 19 18 19 20 20 20 20 20 20 19 19 18 17 16 15 14 13 14 14 14 17 19 16 13 12 14 17 16 15 16 17 17 17 17 17 18 18 19 19 20 21
23 22 22 22 21 20 20 19 19 21 22 22 21 21 22 22 22 22 22 22 22 23 22 22 21 21 20 19 19 20 20 20 20 20 20 20 21 21 21 22 21 21 21 20 19 19 20 20 21 22 21 21 21 21 20 19 19 18 17 16 15 14 14 14 15 17 18 17 14 15 17 19 18 19 20 20 20 20 20 19 19 19 19 20 21
24 25 25 25 23 22 20 19 20 22 23 23 23 23 24 24 25 24 25 25 26 25 24 22 22 23 22 22 22 23 23 23 23 23 22 22 22 22 22 23 23 23 23 21 20 19 20 21 22 22 22 21 22 22 21 21 20 20 19 19 18 17 16 16 16 16 17 17 15 15 17 18 18 20 22 22 22 22 22 22 21 20 20 20 21
26 27 27 26 25 24 23 22 23 24 25 25 25 25 26 26 27 27 27 28 28 27 25 25 25 26 26 25 24 25 25 25 25 25 25 25 25 25 25 25 25 25 25 24 22 22 22 22 23 23 23 22 22 23 23 23 22 22 22 21 20 20 19 19 19 19 19 19 17 16 17 17 18 20 22 23 24 24 24 24 24 23 22 22 22
27 27 27 26 25 25 24 23 23 24 24 26 27 27 28 28 29 29 29 29 28 27 27 28 29 29 29 29 28 28 27 27 27 27 28 28 27 28 27 26 26 26 25 25 25 25 25 24 24 24 24 23 23 23 24 24 24 24 23 22 21 21 21 20 21 21 22 21 19 18 18 18 19 20 22 24 25 26 27 26 26 25 25 25 25
27 28 28 28 26 25 25 24 24 24 24 25 26 26 27 28 29 30 30 30 29 29 29 30 30 30 31 31 31 30 29 29 30 30 30 29 29 29 29 28 27 26 25 25 26 27 27 26 26 26 25 24 24 24 25 26 26 26 25 24 23 23 21 21 21 22 23 23 22 20 20 20 21 21 23 25 26 28 28 28 27 27 26 27 27
27 27 29 30 29 27 27 26 27 26 25 25 27 28 28 29 29 30 31 31 31 31 31 32 32 32 32 32 32 32 31 31 32 31 30 30 30 29 29 28 28 26 26 26 27 27 27 28 28 27 26 25 24 25 26 27 27 27 26 25 25 24 24 23 23 24 24 23 23 23 23 23 23 22 23 25 27 27 27 27 27 27 27 28 28
27 28 30 31 31 29 28 28 28 28 27 27 28 30 31 31 32 32 32 33 34 34 34 34 34 33 33 33 33 33 33 32 32 32 31 30 30 29 29 28 28 27 26 26 27 28 28 29 30 29 28 26 25 25 26 26 27 27 27 26 26 25 25 25 24 24 25 24 23 23 24 25 25 24 24 26 27 28 28 28 27 27 27 27 26
25 26 27 28 29 30 30 30 29 29 29 29 29 30 32 33 33 33 32 34 35 37 37 37 37 36 35 34 34 34 33 33 33 32 32 31 30 30 29 28 28 27 27 27 28 29 30 31 31 31 30 29 27 27 28 27 27 28 28 27 26 25 25 26 25 25 25 25 25 25 26 28 28 28 27 27 28 29 30 30 29 28 27 27 26
Wind_Direction
120 122 128 134 136 134 138 141 142 146 148 150 150 148 150 150 147 144 141 145 147 143 136 129 127 126 122 117 109 103 100 99 100 102 107 111 113 114 114 115 114 112 110 108 106 104 103 101 98 97 96 95 93 90 87 84 80 77 73 70 66 63 60 56 53 49 46 43 40 39 39 39 39 41 44 46 45 44 42 40 37 31 25 24 23
122 125 131 135 138 139 141 145 146 147 148 150 150 149 152 150 146 144 145 150 149 142 134 130 129 126 122 117 110 104 101 100 101 104 107 111 114 115 116 115 114 111 110 107 106 105 103 100 98 97 97 96 95 91 88 84 80 74 69 64 60 56 53 50 47 44 42 39 38 36 37 39 40 42 44 45 45 43 41 39 37 32 26 24 23
121 121 129 135 139 143 145 148 149 147 147 150 150 150 151 148 148 149 151 154 148 140 134 131 130 127 123 118 114 108 103 101 101 103 107 112 116 118 118 117 114 112 109 107 106 105 102 99 97 96 96 97 94 90 86 81 76 70 64 58 53 49 46 43 41 39 37 35 34 33 35 39 41 42 43 43 43 41 39 37 35 32 26 24 22
123 122 127 133 137 142 146 147 146 144 144 147 148 150 151 152 153 152 154 152 145 142 137 131 130 126 123 120 115 109 104 101 100 103 108 114 119 121 120 118 115 114 111 108 107 104 101 98 95 94 94 93 91 87 81 75 69 63 57 52 47 43 39 37 35 33 32 31 31 31 35 41 41 41 40 40 40 39 37 34 32 30 27 24 22
131 129 126 129 130 133 139 138 137 137 139 145 149 152 156 158 154 149 151 149 146 147 138 130 130 125 123 122 114 106 102 99 101 105 111 118 122 124 122 119 117 115 113 111 108 103 99 95 91 90 89 87 84 79 73 66 60 54 49 44 40 36 33 32 31 29 28 27 27 29 37 42 40 38 37 37 37 36 34 32 31 29 27 25 23
133 133 125 124 124 125 130 130 129 134 139 146 150 154 159 157 150 145 147 148 152 151 136 131 131 124 124 122 112 107 103 97 100 107 114 120 124 125 123 120 116 115 114 114 110 105 100 94 89 84 81 78 74 68 62 57 52 46 41 37 34 31 29 27 27 25 23 24 26 30 39 41 36 34 33 34 34 33 31 29 29 29 27 25 23
130 132 128 125 126 126 128 129 131 137 142 145 147 150 155 153 145 142 145 151 156 150 135 134 133 128 128 123 114 108 103 100 103 110 115 121 124 124 124 121 118 117 116 116 114 109 102 96 90 83 77 73 68 60 53 47 44 40 35 31 29 26 24 23 21 19 19 20 24 32 41 38 32 31 30 32 33 30 28 26 27 29 28 25 23
128 133 134 130 129 128 128 132 135 138 140 141 144 146 150 152 146 142 148 154 155 146 136 137 135 130 128 122 114 104 99 101 104 109 116 121 124 124 125 125 123 122 120 119 116 111 106 99 91 83 75 67 58 49 44 40 36 32 26 24 23 22 20 18 15 12 13 17 23 31 38 32 28 28 27 28 29 28 25 23 24 27 27 25 23
127 131 135 132 127 127 130 136 136 136 139 140 143 147 152 156 147 144 152 155 153 148 140 140 137 132 129 123 116 108 104 103 102 106 114 121 125 127 129 129 128 126 123 122 119 113 109 101 91 81 68 52 39 35 34 31 27 22 17 15 16 17 15 13 10 7 8 13 20 27 31 27 24 24 23 23 25 24 22 20 20 23 25 24 22
132 132 131 130 130 132 136 139 138 140 142 142 145 150 154 152 142 145 155 155 155 150 141 141 141 135 131 125 116 111 110 107 105 109 115 122 129 134 134 131 129 127 124 125 123 117 109 100 89 73 57 37 25 22 22 22 19 14 9 7 8 9 8 8 5 2 4 10 16 20 23 22 21 20 19 19 20 20 18 17 17 17 20 22 21
132 130 127 132 136 138 139 141 141 142 141 139 143 147 148 145 140 148 157 155 155 149 142 144 144 136 130 124 116 110 108 107 106 109 115 124 133 138 138 134 132 132 130 129 125 116 103 92 81 61 41 27 18 14 12 13 11 7 5 4 3 2 1 1 0 358 0 7 12 15 17 18 18 15 13 14 16 18 16 14 13 12 15 19 21
119 122 124 129 132 132 134 138 139 138 136 138 142 143 144 146 147 149 150 150 153 149 144 144 142 136 127 118 111 105 105 104 103 107 114 125 134 137 139 140 137 134 132 132 129 121 108 88 79 62 36 21 13 6 3 5 3 1 2 2 0 358 356 356 356 354 355 2 8 11 13 15 18 15 10 10 13 15 14 11 10 10 11 16 21
125 128 126 124 126 128 132 137 137 138 141 146 148 147 149 152 151 146 139 142 150 148 141 138 138 133 123 113 105 98 100 100 99 105 118 132 139 140 143 146 142 136 135 135 129 122 120 106 76 52 32 17 6 359 355 357 357 358 0 360 357 355 354 353 352 351 350 356 4 10 11 14 19 17 11 8 10 13 12 9 10 10 10 15 20
129 131 129 128 131 135 139 143 145 148 153 155 152 150 149 148 144 136 131 138 145 142 138 138 134 126 120 112 103 97 97 98 96 100 118 135 140 142 146 152 150 144 143 141 132 125 125 74 24 15 8 2 355 351 348 349 351 353 357 356 353 351 351 352 351 348 346 350 360 8 11 14 19 19 13 7 6 10 11 9 10 11 10 14 21
116 118 122 126 131 136 139 144 149 152 154 153 149 146 143 139 135 132 130 136 141 138 140 143 136 125 115 99 89 88 92 101 101 100 109 125 136 143 148 154 151 144 149 151 142 134 125 29 9 359 351 349 345 340 338 342 347 349 351 351 349 348 348 350 349 347 343 344 354 5 11 15 16 16 12 6 4 7 9 9 11 12 12 15 21
99 104 109 115 122 128 133 139 144 146 146 145 143 140 137 133 131 132 129 132 135 134 141 151 140 121 107 90 82 78 80 95 107 111 110 109 126 141 148 150 141 131 143 154 152 138 105 327 320 332 336 335 333 331 332 338 342 343 346 349 346 344 344 345 347 346 343 340 346 1 11 14 14 12 9 5 4 4 7 10 11 13 14 16 19
96 98 103 109 117 123 128 132 136 140 140 139 137 138 137 131 129 130 128 131 131 127 139 151 123 97 88 81 81 80 81 91 102 116 119 102 107 119 127 141 135 116 124 141 164 235 356 309 304 315 323 324 326 328 331 335 337 337 343 346 343 341 340 339 342 344 342 338 340 354 7 11 10 10 9 6 4 2 4 10 12 13 15 16 17
102 103 106 111 117 122 127 130 132 136 137 135 135 135 133 131 130 129 126 129 130 126 137 143 113 91 81 74 74 74 78 91 101 110 106 88 90 93 93 96 95 32 352 314 260 300 323 319 311 310 314 320 324 325 327 329 331 334 339 340 337 337 335 334 337 342 341 337 335 345 0 5 5 9 10 6 3 360 2 10 12 12 13 14 14
107 108 112 117 120 123 127 130 131 134 135 135 134 129 127 128 130 128 126 128 131 132 141 140 114 89 80 75 75 74 71 81 90 93 89 75 71 77 81 75 56 40 329 298 285 292 308 322 312 304 313 321 320 320 323 325 325 330 334 334 333 332 331 332 335 338 338 334 332 338 353 360 2 8 9 5 2 358 0 8 11 10 11 12 13
111 111 116 122 123 124 128 130 132 135 135 136 134 129 126 125 126 128 129 131 133 135 140 132 107 82 73 69 69 73 71 68 67 70 81 82 74 75 81 77 65 56 16 302 307 318 317 317 306 303 313 316 314 320 326 325 324 329 331 330 328 327 329 332 332 333 334 331 328 333 346 356 0 6 6 1 360 357 359 6 9 9 10 12 13
113 113 117 123 124 125 127 129 132 132 132 134 132 127 125 124 127 130 132 135 134 132 133 120 92 73 66 61 58 63 67 70 67 57 68 88 94 93 84 80 87 72 8 275 299 335 318 305 303 307 310 307 311 320 322 319 321 326 327 326 325 326 328 329 327 328 331 329 327 331 343 353 358 2 2 356 355 356 359 5 7 9 12 15 18
116 117 118 122 122 123 127 128 128 128 131 134 132 128 127 130 131 131 132 135 130 123 118 106 84 66 59 56 52 52 54 64 68 56 59 76 97 107 96 84 92 324 304 285 298 320 292 294 301 306 307 308 312 317 317 318 319 322 324 325 325 324 325 327 326 327 330 328 328 332 342 351 355 358 358 352 349 354 360 5 6 10 16 20 24
119 120 122 124 125 127 130 130 128 131 135 136 135 133 132 134 135 135 133 131 127 118 108 98 87 72 60 55 51 48 42 47 60 61 63 66 76 101 105 105 114 115 295 319 5 351 285 286 291 299 309 314 315 316 318 317 317 319 323 325 324 323 325 329 329 329 331 330 330 334 342 348 351 353 353 348 344 350 360 4 5 10 19 24 26
120 122 124 125 127 129 131 131 132 137 140 140 139 138 137 138 138 137 133 128 122 114 104 91 84 73 60 54 52 51 44 40 53 58 59 64 68 78 92 109 114 81 79 69 41 344 288 278 276 290 305 307 305 310 314 313 315 320 324 325 327 327 327 329 328 327 329 328 328 332 339 345 347 347 348 343 337 346 358 3 4 9 19 25 27
121 123 125 126 127 129 133 134 136 140 141 140 141 141 141 140 138 135 131 126 115 106 99 88 79 66 56 53 46 48 49 44 52 59 58 59 59 61 71 82 66 41 43 53 47 276 282 279 282 294 302 297 299 308 317 318 319 322 325 325 325 324 324 324 323 322 324 324 324 327 334 342 344 342 341 337 330 341 355 0 359 4 14 21 23
122 125 127 128 130 134 138 139 141 143 141 140 141 141 141 140 139 135 130 122 111 101 89 78 66 48 45 44 37 38 42 46 56 65 68 65 59 61 66 64 47 10 333 330 299 277 289 292 291 299 303 303 309 320 323 319 317 319 321 321 323 324 324 323 321 320 323 325 322 323 332 341 339 335 333 328 322 334 351 356 353 353 1 9 12
127 130 129 130 133 137 139 142 144 146 145 145 145 144 145 146 146 143 137 126 114 94 61 43 26 15 16 16 24 33 34 52 66 72 78 79 73 75 74 69 70 344 306 302 293 287 287 280 281 292 301 307 316 322 322 320 319 319 320 322 326 326 324 323 320 319 322 326 324 323 332 338 330 324 322 319 316 327 344 351 348 342 343 349 353
138 136 134 135 138 139 141 144 148 149 149 149 150 151 153 153 150 150 150 145 144 322 329 333 338 345 352 355 8 22 29 47 63 70 81 81 78 94 106 109 131 209 275 288 293 297 295 281 272 286 299 306 313 316 318 321 321 321 322 325 325 322 319 320 319 318 321 326 327 325 330 330 321 313 312 314 314 321 337 345 343 337 332 331 333
151 147 146 146 145 144 146 149 151 153 155 157 159 162 167 169 168 181 204 244 279 296 307 314 322 328 330 330 339 0 20 31 29 59 93 154 347 91 179 230 199 217 248 271 287 299 307 305 293 291 296 301 305 309 314 318 318 318 319 319 317 315 317 322 322 320 321 325 325 323 325 324 312 304 308 318 321 318 326 335 338 335 331 328 325
166 162 162 160 156 157 161 163 164 166 168 170 175 180 189 200 209 226 247 265 281 293 304 309 313 317 317 313 313 318 315 293 289 298 216 233 256 251 251 265 268 256 258 269 280 290 297 299 298 294 294 297 301 306 311 313 311 311 312 314 315 316 320 323 323 321 324 328 328 322 322 319 301 296 306 322 332 325 320 324 330 332 331 330 328
178 175 176 177 177 178 181 185 187 190 194 196 200 205 212 224 234 245 258 268 279 290 296 298 302 304 305 304 302 301 293 280 273 270 262 252 250 247 248 257 265 266 268 273 280 285 290 296 299 300 298 299 301 303 306 308 307 308 311 315 316 317 319 321 320 322 332 340 338 328 321 306 286 291 307 325 336 334 326 321 321 324 327 328 328
190 186 186 188 190 195 201 205 206 207 212 215 219 225 231 240 250 258 267 276 284 290 289 289 291 289 285 283 281 281 280 277 275 274 273 270 266 262 260 260 262 264 267 272 279 285 290 298 304 307 307 306 307 307 306 309 311 311 314 317 317 318 319 318 317 323 336 345 341 328 311 291 283 293 307 322 331 334 331 325 320 319 321 323 325
204 200 199 197 197 202 209 217 221 222 224 226 230 236 240 246 255 262 270 278 285 290 289 287 287 282 279 277 274 274 275 275 277 278 281 282 282 282 280 279 279 279 280 281 285 289 293 299 305 310 311 311 313 313 309 311 313 313 315 316 317 319 321 321 321 326 334 339 337 325 306 288 286 293 301 309 319 324 326 324 320 319 320 322 323
212 212 211 209 207 209 213 220 226 230 234 236 239 244 248 252 258 263 268 273 279 284 287 287 287 284 282 282 280 280 281 281 283 285 289 292 294 297 298 299 300 297 296 297 296 299 302 305 308 312 313 312 312 312 308 309 309 309 310 311 315 321 326 329 331 333 333 331 331 327 314 296 284 285 292 297 305 313 317 318 317 318 320 322 323
217 217 220 220 219 219 222 226 230 233 237 241 244 248 253 257 260 262 266 268 270 272 273 276 278 278 279 281 284 287 288 290 292 294 298 300 303 307 308 310 313 311 309 309 308 309 312 313 312 314 313 305 301 301 301 301 301 304 307 309 316 324 328 330 333 334 333 330 327 326 322 313 296 284 284 288 294 301 306 309 311 312 315 318 320
226 226 228 231 230 229 231 236 239 241 243 245 247 250 253 256 258 259 262 266 267 266 265 266 267 266 267 272 278 285 290 293 296 297 299 302 303 305 305 306 307 307 308 308 308 309 309 309 309 310 308 302 297 296 297 297 300 305 307 308 314 320 322 324 327 329 329 328 325 322 321 320 314 301 291 287 290 294 297 299 302 304 307 310 312
237 237 237 240 242 240 239 242 246 249 252 252 253 255 256 255 256 257 261 265 266 266 268 270 270 269 268 271 274 279 285 289 292 294 296 296 296 297 299 300 300 301 304 305 304 305 305 306 308 309 308 305 302 302 302 302 305 307 304 301 306 310 313 316 320 324 325 325 322 319 317 317 314 309 303 299 296 295 295 297 298 300 302 305 307
240 243 244 246 248 247 245 246 247 250 255 258 259 261 262 262 262 263 263 264 264 266 267 269 272 274 275 277 277 277 281 286 291 292 292 293 294 294 295 297 298 298 300 301 301 303 303 304 306 307 307 305 304 305 306 307 311 310 304 301 303 305 307 310 316 322 326 327 326 323 318 313 306 302 301 301 300 297 296 297 297 298 300 303 304
238 242 245 245 246 249 249 248 247 248 250 256 258 259 261 264 267 268 267 266 266 268 269 269 269 272 273 276 278 279 281 286 291 292 291 291 292 294 295 296 297 297 297 298 298 299 300 302 302 303 303 302 303 304 304 306 307 305 304 306 308 308 308 309 313 321 329 332 331 331 329 322 309 300 296 295 294 293 294 295 296 297 298 300 301
241 242 243 243 244 246 248 248 249 249 250 253 255 255 257 260 263 266 266 266 266 268 270 271 270 270 271 273 277 282 284 285 286 288 290 292 293 294 296 295 294 294 294 295 297 298 299 300 302 301 300 301 302 302 303 303 303 303 305 308 311 311 310 309 311 320 329 329 327 329 334 335 327 316 308 300 296 294 294 296 298 300 301 303 305
247 246 245 246 247 245 247 249 248 249 251 252 252 253 255 256 257 259 261 264 265 267 270 272 272 273 273 275 279 284 288 288 286 285 288 291 291 292 295 295 293 293 294 296 298 300 301 301 301 300 300 301 302 303 303 304 306 308 309 310 310 309 308 308 310 317 326 325 321 321 326 333 332 327 322 315 309 305 304 305 306 308 310 312 313
251 250 249 249 248 247 248 251 251 251 252 253 254 255 256 256 257 257 258 260 262 264 266 269 272 274 274 277 282 286 286 285 284 283 284 287 289 291 293 294 293 294 296 298 300 301 301 300 298 299 300 301 302 303 304 306 309 310 311 310 310 309 308 309 310 315 326 332 323 316 319 328 331 326 324 323 320 317 314 314 315 316 317 316 315
253 255 254 253 253 253 254 257 258 257 258 258 259 258 257 257 259 261 261 260 260 261 262 264 266 270 274 277 280 278 276 276 278 280 281 283 286 289 289 288 289 292 293 295 298 300 299 297 296 297 298 300 302 304 305 306 307 308 308 307 306 306 309 311 311 315 324 331 327 317 316 323 327 322 320 321 319 316 315 314 315 317 316 315 313
248 252 255 255 256 258 261 263 263 262 262 262 261 260 259 260 262 264 265 265 264 262 263 264 266 269 272 273 273 271 271 273 275 276 277 279 282 284 285 286 287 288 288 290 293 295 295 295 295 295 297 300 301 303 304 304 304 304 304 303 303 303 305 306 307 309 313 318 320 314 312 317 320 317 315 314 312 310 309 310 312 313 313 312 312
246 246 247 249 251 252 255 257 259 260 261 260 259 258 259 260 262 262 263 265 265 265 268 270 270 270 270 268 268 268 270 272 274 275 276 278 280 281 283 285 285 285 285 285 285 286 288 290 292 293 296 298 299 300 301 301 299 298 298 299 302 302 301 301 301 300 300 302 306 304 303 308 313 312 310 310 308 306 306 306 308 310 310 310 310
248 249 248 247 248 249 249 248 250 253 255 257 258 258 259 260 260 261 261 262 264 267 271 271 269 268 268 267 266 266 268 271 273 274 275 276 277 278 279 280 281 282 284 284 283 283 284 285 287 290 292 294 296 298 299 298 296 295 294 296 297 298 299 300 299 297 295 296 298 298 299 304 309 308 306 307 307 307 307 307 307 307 307 307 306
249 253 254 252 251 251 251 249 249 251 253 256 258 259 261 262 263 264 264 264 266 267 267 267 267 266 266 266 266 265 267 269 270 271 272 273 275 276 276 277 277 279 281 283 283 283 284 284 285 287 289 292 295 296 296 295 294 294 294 295 295 295 296 297 297 295 295 296 298 298 299 304 309 308 306 305 305 306 307 307 307 307 307 306 304
249 252 255 255 254 255 256 255 253 252 253 255 258 259 261 263 265 266 267 268 268 267 265 264 265 266 266 266 267 266 267 268 268 269 270 271 273 275 276 277 278 280 281 281 283 284 285 285 284 285 288 291 293 294 294 294 294 294 295 296 294 293 293 292 292 292 293 296 299 301 302 305 308 308 306 306 305 305 305 305 306 308 307 306 304
248 250 253 256 256 255 255 256 255 253 253 256 260 263 265 267 268 269 270 271 270 268 266 264 263 263 264 265 266 267 267 267 268 269 270 272 273 273 274 276 278 280 281 281 282 284 284 285 285 286 287 288 290 291 290 291 291 291 292 291 291 291 290 289 290 291 293 296 300 302 302 303 305 305 305 304 303 303 303 303 305 306 306 305 303
251 251 253 255 257 256 254 254 256 257 257 258 261 265 267 269 270 271 272 272 271 269 267 264 262 261 261 262 264 265 266 266 267 268 269 270 270 271 272 273 275 276 278 279 282 283 284 285 285 286 286 286 287 286 286 287 288 287 287 287 287 287 287 287 288 289 291 294 296 298 299 299 301 301 301 301 300 300 300 301 302 304 305 305 304
258 257 257 257 258 258 256 256 259 261 262 262 262 264 267 269 270 271 271 272 272 271 269 266 262 259 258 260 261 262 264 265 266 267 267 267 268 269 270 271 272 272 274 277 280 282 284 285 285 285 286 286 286 286 287 288 287 286 286 285 285 284 284 285 286 287 289 291 292 293 294 295 297 298 298 298 298 298 299 299 300 301 302 304 305
Height
5927 5927 5928 5928 5929 5929 5930 5932 5933 5935 5936 5938 5939 5941 5943 5944 5945 5946 5947 5948 5950 5952 5953 5954 5954 5955 5955 5956 5957 5957 5958 5958 5958 5958 5958 5958 5958 5958 5958 5958 5959 5959 5958 5958 5959 5959 5959 5959 5959 5959 5959 5959 5958 5958 5957 5957 5957 5956 5955 5955 5954 5954 5953 5952 5951 5950 5949 5948 5947 5946 5945 5944 5944 5943 5942 5941 5940 5939 5939 5938 5937 5936 5935 5933 5932
5928 5928 5929 5929 5929 5930 5931 5933 5934 5936 5937 5939 5941 5942 5944 5945 5946 5947 5948 5950 5951 5953 5954 5955 5956 5956 5956 5957 5958 5958 5959 5959 5959 5959 5959 5959 5959 5960 5960 5960 5960 5961 5961 5961 5961 5961 5961 5961 5961 5961 5961 5960 5960 5959 5959 5958 5958 5957 5957 5956 5956 5955 5954 5953 5952 5952 5950 5949 5948 5947 5946 5945 5944 5943 5943 5942 5941 5940 5939 5938 5937 5936 5935 5934 5933
5930 5930 5931 5931 5931 5931 5933 5934 5936 5937 5939 5941 5942 5943 5945 5946 5948 5949 5950 5951 5952 5953 5955 5956 5957 5957 5957 5958 5959 5959 5960 5960 5960 5960 5960 5960 5961 5961 5961 5961 5962 5962 5963 5963 5963 5963 5963 5964 5963 5963 5963 5962 5962 5961 5961 5960 5960 5959 5958 5958 5957 5956 5955 5954 5953 5952 5951 5950 5949 5947 5946 5946 5945 5944 5943 5942 5941 5941 5940 5939 5938 5936 5935 5934 5933
5932 5932 5932 5933 5933 5933 5935 5936 5937 5939 5940 5942 5943 5945 5946 5948 5950 5951 5952 5953 5953 5955 5956 5957 5958 5958 5958 5959 5960 5960 5961 5961 5961 5962 5962 5962 5962 5962 5962 5963 5963 5963 5964 5964 5965 5965 5965 5965 5965 5965 5965 5965 5964 5963 5963 5962 5961 5961 5960 5959 5958 5957 5956 5955 5954 5953 5952 5950 5949 5948 5947 5946 5945 5945 5944 5943 5942 5941 5940 5939 5938 5937 5936 5935 5933
5934 5934 5934 5935 5935 5936 5937 5938 5939 5940 5942 5944 5945 5947 5948 5950 5951 5952 5953 5954 5955 5957 5957 5958 5959 5959 5960 5961 5961 5961 5962 5962 5962 5963 5963 5963 5963 5963 5964 5964 5964 5964 5965 5966 5966 5967 5967 5967 5967 5967 5967 5967 5966 5965 5965 5964 5963 5963 5962 5961 5960 5959 5958 5956 5955 5954 5953 5952 5950 5949 5948 5947 5946 5946 5945 5944 5943 5942 5941 5940 5939 5937 5936 5935 5934
5935 5936 5936 5937 5938 5939 5940 5940 5941 5942 5944 5946 5947 5949 5950 5951 5952 5953 5954 5955 5957 5959 5959 5959 5960 5960 5961 5962 5962 5963 5963 5963 5963 5964 5964 5964 5964 5964 5964 5965 5966 5966 5966 5967 5967 5968 5968 5969 5969 5969 5969 5968 5968 5967 5967 5966 5965 5965 5964 5963 5962 5960 5959 5958 5957 5955 5954 5953 5951 5950 5949 5948 5947 5946 5946 5945 5944 5943 5942 5941 5939 5938 5937 5936 5934
5937 5937 5938 5939 5940 5941 5942 5942 5943 5944 5946 5947 5949 5950 5951 5952 5953 5954 5955 5957 5959 5960 5960 5960 5960 5961 5962 5963 5963 5964 5964 5964 5964 5965 5965 5964 5965 5965 5965 5966 5967 5967 5967 5968 5968 5969 5969 5969 5970 5970 5970 5969 5969 5969 5968 5968 5967 5966 5965 5964 5963 5962 5960 5959 5958 5956 5955 5954 5953 5951 5950 5949 5948 5947 5946 5945 5944 5943 5942 5941 5940 5939 5938 5936 5935
5938 5938 5939 5940 5941 5942 5942 5943 5944 5945 5946 5947 5949 5951 5952 5954 5954 5955 5957 5959 5960 5961 5961 5962 5962 5962 5963 5964 5964 5964 5965 5965 5965 5965 5965 5965 5966 5966 5966 5967 5967 5968 5968 5969 5970 5970 5970 5970 5970 5970 5970 5970 5970 5970 5969 5969 5968 5967 5966 5965 5964 5963 5962 5960 5959 5958 5956 5955 5954 5953 5951 5950 5949 5948 5947 5946 5945 5944 5943 5942 5941 5940 5938 5937 5936
5939 5939 5940 5941 5942 5942 5942 5943 5944 5945 5946 5948 5950 5952 5954 5955 5956 5957 5958 5959 5961 5961 5962 5963 5963 5963 5964 5964 5965 5965 5966 5966 5966 5966 5966 5966 5966 5967 5967 5967 5968 5969 5969 5970 5971 5971 5971 5971 5971 5971 5971 5971 5971 5970 5970 5970 5969 5968 5967 5966 5965 5964 5962 5961 5960 5958 5957 5956 5955 5954 5953 5951 5950 5948 5947 5946 5945 5944 5943 5942 5941 5940 5939 5938 5936
5940 5941 5941 5942 5943 5943 5943 5945 5946 5947 5948 5949 5951 5953 5955 5956 5956 5958 5959 5960 5961 5962 5963 5964 5964 5964 5964 5965 5965 5966 5966 5967 5967 5967 5967 5967 5967 5967 5968 5968 5969 5970 5971 5971 5972 5972 5972 5972 5972 5972 5972 5972 5972 5971 5971 5970 5969 5969 5968 5967 5966 5964 5963 5962 5960 5959 5958 5957 5956 5955 5954 5952 5951 5949 5948 5946 5945 5945 5943 5943 5942 5941 5939 5938 5936
5941 5942 5943 5944 5945 5945 5945 5946 5948 5949 5949 5950 5952 5954 5956 5956 5957 5959 5961 5962 5963 5963 5964 5965 5966 5966 5966 5966 5966 5967 5967 5967 5967 5967 5967 5967 5967 5968 5969 5969 5970 5970 5971 5972 5972 5973 5973 5972 5972 5972 5972 5972 5972 5972 5971 5970 5969 5968 5968 5967 5966 5965 5964 5963 5961 5960 5959 5957 5956 5955 5954 5953 5952 5950 5949 5947 5946 5945 5943 5942 5941 5940 5939 5938 5937
5940 5942 5943 5944 5945 5945 5946 5947 5948 5949 5949 5950 5953 5954 5956 5957 5958 5960 5961 5963 5964 5964 5965 5966 5967 5967 5967 5967 5967 5967 5967 5968 5968 5968 5968 5968 5969 5969 5970 5971 5971 5971 5972 5972 5973 5973 5973 5973 5973 5972 5972 5972 5971 5971 5971 5970 5969 5968 5967 5967 5966 5965 5964 5963 5962 5961 5959 5958 5957 5956 5955 5954 5953 5951 5949 5948 5946 5945 5943 5942 5941 5940 5939 5938 5937
5942 5944 5944 5944 5944 5945 5947 5948 5949 5950 5951 5952 5954 5955 5957 5958 5960 5961 5962 5963 5965 5966 5966 5967 5968 5968 5968 5968 5968 5968 5968 5968 5968 5968 5969 5969 5969 5970 5971 5971 5972 5972 5972 5973 5973 5973 5973 5973 5973 5973 5972 5972 5972 5971 5971 5970 5969 5969 5968 5967 5966 5965 5965 5964 5963 5962 5960 5959 5957 5956 5955 5954 5953 5952 5950 5948 5947 5945 5943 5942 5941 5940 5938 5937 5936
5944 5945 5946 5946 5947 5947 5949 5950 5952 5953 5954 5955 5956 5957 5958 5959 5960 5961 5962 5964 5965 5966 5967 5969 5969 5969 5969 5969 5969 5969 5969 5969 5969 5970 5970 5970 5970 5971 5971 5972 5972 5973 5973 5973 5973 5974 5974 5974 5973 5973 5973 5973 5972 5972 5971 5970 5970 5969 5968 5967 5966 5966 5965 5964 5963 5962 5961 5959 5958 5956 5955 5954 5953 5952 5951 5949 5947 5945 5943 5942 5941 5939 5938 5937 5936
5943 5945 5946 5947 5948 5950 5951 5952 5953 5955 5956 5956 5957 5957 5958 5959 5960 5961 5963 5964 5965 5966 5968 5969 5970 5970 5969 5969 5969 5969 5970 5970 5970 5971 5971 5971 5971 5972 5972 5973 5973 5974 5974 5974 5974 5974 5974 5974 5974 5974 5974 5973 5973 5972 5971 5971 5970 5970 5969 5968 5967 5966 5965 5963 5962 5962 5961 5960 5958 5956 5955 5954 5953 5952 5951 5949 5947 5945 5944 5942 5940 5939 5938 5936 5936
5943 5944 5945 5947 5948 5949 5951 5952 5953 5954 5955 5955 5956 5957 5958 5959 5960 5962 5963 5964 5966 5967 5969 5970 5970 5970 5970 5970 5970 5970 5971 5971 5971 5972 5972 5972 5972 5973 5973 5974 5974 5975 5975 5975 5975 5975 5975 5975 5974 5974 5974 5973 5973 5972 5971 5971 5971 5970 5969 5968 5967 5966 5965 5963 5962 5961 5961 5960 5958 5956 5955 5954 5953 5953 5951 5950 5948 5946 5944 5942 5940 5939 5938 5936 5935
5944 5945 5946 5947 5948 5949 5950 5951 5952 5954 5954 5955 5955 5956 5958 5959 5960 5962 5963 5965 5966 5967 5970 5971 5971 5971 5971 5971 5971 5971 5971 5972 5972 5973 5973 5973 5973 5974 5975 5975 5975 5976 5976 5976 5976 5975 5975 5975 5975 5975 5974 5973 5973 5972 5971 5971 5971 5970 5969 5968 5967 5966 5965 5964 5962 5961 5960 5960 5958 5956 5955 5954 5953 5953 5952 5950 5948 5946 5944 5942 5940 5939 5938 5936 5935
5946 5947 5947 5948 5949 5950 5951 5951 5952 5953 5954 5955 5956 5957 5958 5959 5961 5962 5964 5965 5967 5968 5971 5972 5972 5971 5972 5972 5972 5972 5972 5972 5973 5974 5974 5974 5974 5975 5975 5976 5976 5977 5977 5977 5976 5976 5975 5975 5975 5974 5974 5973 5973 5973 5972 5971 5971 5970 5969 5968 5967 5965 5964 5964 5962 5961 5960 5959 5958 5957 5955 5954 5953 5952 5952 5950 5948 5946 5944 5942 5941 5939 5938 5936 5935
5948 5949 5949 5950 5950 5951 5952 5952 5953 5954 5955 5956 5957 5958 5960 5961 5962 5964 5965 5966 5968 5969 5971 5972 5972 5972 5972 5972 5972 5972 5972 5972 5973 5974 5974 5974 5974 5975 5976 5976 5977 5977 5977 5977 5977 5976 5976 5975 5975 5974 5974 5974 5973 5972 5972 5971 5970 5969 5969 5967 5966 5965 5964 5963 5962 5961 5960 5959 5958 5957 5955 5954 5953 5952 5952 5950 5948 5946 5944 5942 5941 5939 5938 5936 5935
5950 5951 5951 5952 5952 5953 5953 5954 5955 5956 5957 5958 5959 5960 5961 5962 5964 5965 5966 5967 5969 5970 5971 5972 5972 5972 5972 5972 5972 5972 5972 5972 5973 5973 5974 5974 5975 5975 5976 5976 5977 5977 5977 5977 5977 5976 5976 5975 5974 5973 5973 5973 5972 5971 5971 5970 5970 5969 5968 5967 5966 5965 5964 5963 5961 5960 5959 5958 5958 5957 5955 5954 5953 5952 5952 5950 5949 5946 5944 5942 5941 5939 5938 5936 5935
5952 5952 5953 5954 5954 5955 5955 5956 5957 5957 5958 5959 5960 5961 5963 5964 5965 5966 5967 5969 5970 5971 5972 5972 5972 5972 5973 5972 5972 5972 5972 5972 5973 5973 5973 5974 5975 5975 5976 5976 5976 5976 5976 5976 5976 5976 5975 5974 5974 5973 5973 5972 5972 5971 5970 5970 5969 5969 5968 5966 5965 5964 5963 5962 5961 5959 5958 5957 5957 5956 5955 5954 5952 5952 5951 5950 5949 5947 5944 5942 5941 5939 5938 5936 5935
5953 5954 5955 5955 5956 5956 5957 5957 5958 5959 5960 5961 5962 5963 5964 5965 5967 5968 5969 5970 5971 5972 5972 5972 5972 5973 5973 5973 5972 5972 5972 5972 5972 5972 5973 5974 5975 5975 5976 5976 5975 5975 5975 5975 5976 5976 5975 5974 5973 5972 5972 5972 5971 5971 5970 5969 5968 5967 5966 5965 5964 5963 5962 5961 5959 5958 5957 5957 5956 5955 5954 5953 5952 5952 5951 5950 5948 5946 5944 5942 5941 5940 5938 5937 5935
5954 5955 5956 5957 5957 5958 5958 5959 5960 5961 5962 5962 5963 5964 5965 5966 5968 5969 5970 5971 5971 5972 5972 5972 5973 5973 5973 5973 5972 5972 5972 5972 5972 5972 5973 5973 5974 5975 5975 5975 5975 5975 5975 5975 5975 5975 5974 5974 5973 5972 5972 5971 5970 5970 5969 5968 5967 5966 5965 5964 5963 5962 5960 5959 5958 5957 5956 5956 5955 5955 5954 5952 5951 5951 5951 5950 5948 5946 5944 5943 5941 5940 5939 5937 5936
5955 5956 5957 5958 5958 5959 5959 5960 5961 5962 5963 5964 5964 5965 5966 5967 5968 5970 5970 5971 5971 5972 5972 5972 5973 5973 5973 5972 5972 5972 5972 5972 5972 5973 5973 5973 5973 5973 5974 5975 5974 5974 5974 5974 5974 5974 5974 5974 5973 5972 5972 5971 5970 5969 5968 5967 5966 5965 5964 5963 5961 5960 5959 5958 5957 5956 5955 5955 5954 5954 5953 5951 5951 5950 5950 5949 5948 5946 5944 5942 5941 5940 5939 5938 5937
5956 5957 5957 5958 5959 5960 5960 5961 5962 5963 5964 5964 5965 5966 5967 5968 5969 5970 5970 5971 5971 5971 5972 5972 5973 5973 5972 5972 5972 5972 5971 5971 5972 5972 5972 5972 5972 5972 5973 5973 5973 5973 5973 5973 5973 5973 5973 5973 5972 5971 5971 5970 5969 5968 5967 5966 5964 5963 5962 5961 5960 5959 5958 5957 5956 5955 5955 5954 5954 5953 5951 5950 5950 5949 5949 5948 5947 5945 5943 5942 5941 5940 5939 5938 5937
5957 5958 5958 5959 5960 5960 5961 5962 5963 5963 5964 5965 5966 5967 5968 5968 5969 5970 5970 5971 5971 5971 5971 5972 5972 5972 5972 5972 5971 5971 5971 5971 5971 5972 5972 5972 5972 5972 5972 5972 5972 5972 5972 5972 5972 5972 5972 5971 5970 5969 5969 5968 5968 5967 5966 5965 5963 5962 5961 5960 5959 5958 5957 5956 5955 5954 5953 5953 5952 5951 5950 5949 5949 5948 5948 5947 5946 5944 5943 5942 5941 5940 5939 5938 5937
5957 5958 5959 5960 5960 5961 5962 5963 5963 5964 5965 5966 5966 5967 5968 5968 5969 5970 5970 5970 5970 5971 5971 5971 5971 5971 5970 5971 5971 5971 5971 5971 5971 5971 5971 5971 5971 5971 5971 5971 5971 5971 5971 5971 5971 5971 5970 5970 5969 5968 5968 5967 5966 5965 5964 5963 5962 5961 5960 5959 5958 5957 5956 5955 5954 5953 5952 5952 5951 5950 5949 5948 5948 5948 5947 5946 5945 5944 5942 5941 5940 5940 5939 5938 5937
5958 5958 5959 5960 5961 5961 5962 5963 5964 5964 5965 5966 5967 5967 5968 5969 5969 5970 5970 5970 5970 5970 5970 5970 5970 5969 5969 5969 5970 5970 5970 5970 5970 5971 5971 5970 5970 5970 5970 5970 5970 5970 5970 5970 5970 5969 5969 5969 5968 5967 5966 5965 5965 5964 5963 5962 5961 5960 5959 5958 5957 5956 5955 5954 5954 5952 5952 5951 5950 5949 5948 5948 5947 5947 5947 5946 5944 5943 5942 5941 5940 5939 5938 5937 5936
5958 5958 5959 5960 5961 5961 5962 5963 5964 5964 5965 5966 5967 5967 5968 5968 5969 5969 5969 5969 5969 5969 5969 5969 5969 5969 5968 5968 5968 5969 5969 5969 5969 5970 5970 5970 5970 5970 5970 5970 5970 5970 5969 5969 5968 5968 5968 5967 5967 5966 5965 5964 5964 5963 5962 5961 5960 5959 5958 5957 5957 5956 5955 5954 5953 5952 5951 5950 5950 5949 5948 5948 5947 5947 5946 5945 5944 5943 5941 5940 5940 5939 5938 5937 5936
5957 5958 5958 5959 5960 5961 5962 5963 5964 5964 5965 5966 5967 5967 5968 5968 5968 5968 5968 5969 5969 5968 5968 5968 5968 5968 5968 5968 5968 5968 5968 5968 5968 5968 5969 5969 5969 5969 5969 5969 5969 5968 5968 5968 5967 5967 5967 5966 5966 5965 5965 5964 5963 5962 5961 5960 5959 5958 5957 5957 5956 5955 5954 5953 5952 5951 5950 5950 5949 5948 5948 5947 5947 5946 5946 5945 5943 5942 5941 5940 5939 5939 5937 5936 5935
5956 5957 5958 5958 5959 5960 5961 5962 5963 5964 5965 5965 5966 5967 5967 5967 5968 5968 5968 5968 5968 5967 5967 5967 5967 5967 5967 5967 5967 5967 5967 5967 5967 5967 5967 5967 5967 5968 5967 5967 5967 5967 5967 5966 5966 5966 5966 5965 5965 5964 5964 5963 5962 5961 5960 5960 5959 5957 5957 5956 5955 5954 5953 5952 5952 5950 5950 5949 5948 5948 5947 5947 5946 5946 5945 5944 5943 5942 5941 5940 5939 5939 5937 5936 5935
5955 5956 5957 5958 5958 5959 5961 5961 5962 5963 5964 5964 5965 5965 5966 5966 5967 5967 5967 5967 5967 5967 5967 5966 5966 5966 5966 5966 5966 5966 5966 5966 5966 5966 5966 5966 5966 5966 5966 5966 5966 5965 5965 5965 5964 5964 5964 5964 5963 5963 5962 5962 5961 5960 5959 5959 5958 5957 5956 5955 5954 5953 5952 5952 5951 5950 5949 5948 5948 5947 5947 5946 5946 5945 5945 5944 5943 5942 5941 5940 5939 5938 5937 5936 5935
5955 5955 5956 5957 5957 5958 5959 5960 5961 5962 5962 5963 5963 5964 5965 5965 5965 5966 5966 5966 5966 5966 5966 5966 5966 5965 5965 5965 5965 5965 5965 5965 5965 5966 5965 5965 5965 5965 5965 5965 5965 5964 5964 5964 5963 5963 5963 5962 5962 5961 5961 5960 5960 5959 5958 5957 5956 5955 5954 5954 5953 5952 5951 5951 5950 5949 5949 5948 5948 5947 5946 5946 5945 5944 5944 5943 5942 5941 5941 5940 5939 5938 5937 5936 5935
5954 5955 5956 5956 5957 5957 5958 5959 5960 5960 5961 5962 5962 5963 5963 5964 5964 5965 5965 5965 5965 5965 5965 5965 5965 5965 5965 5965 5965 5965 5965 5965 5965 5965 5965 5964 5964 5964 5964 5964 5964 5964 5963 5963 5962 5961 5961 5961 5960 5960 5960 5959 5958 5958 5957 5956 5955 5954 5954 5953 5952 5952 5951 5951 5950 5949 5949 5948 5947 5946 5945 5944 5944 5943 5942 5942 5941 5941 5940 5939 5939 5938 5937 5936 5934
5953 5954 5954 5955 5956 5957 5957 5958 5959 5959 5960 5961 5961 5962 5962 5963 5963 5964 5964 5964 5964 5964 5964 5964 5964 5964 5964 5964 5964 5964 5964 5964 5964 5964 5964 5963 5963 5963 5963 5963 5963 5963 5962 5962 5961 5960 5960 5960 5959 5959 5958 5958 5957 5956 5956 5955 5954 5954 5953 5952 5952 5951 5951 5950 5950 5950 5949 5948 5947 5945 5944 5943 5942 5942 5941 5941 5940 5940 5939 5939 5938 5937 5936 5935 5934
5952 5952 5953 5954 5955 5955 5956 5957 5958 5958 5959 5960 5960 5961 5961 5962 5962 5963 5963 5963 5963 5963 5963 5963 5963 5963 5963 5963 5963 5963 5964 5964 5964 5963 5963 5962 5962 5962 5962 5962 5961 5961 5961 5961 5960 5960 5959 5958 5958 5958 5957 5957 5956 5955 5955 5954 5954 5954 5953 5952 5951 5951 5950 5949 5949 5949 5948 5947 5946 5944 5943 5942 5941 5941 5940 5940 5939 5939 5938 5937 5937 5936 5935 5934 5933
5950 5951 5952 5952 5953 5954 5954 5955 5956 5957 5958 5959 5959 5959 5960 5960 5961 5961 5961 5962 5962 5962 5962 5962 5962 5962 5962 5962 5962 5962 5962 5962 5962 5962 5962 5961 5961 5960 5960 5960 5960 5959 5959 5959 5959 5958 5958 5957 5956 5956 5956 5955 5955 5954 5954 5954 5953 5953 5952 5951 5950 5949 5948 5947 5947 5947 5946 5945 5944 5943 5942 5942 5941 5940 5939 5939 5938 5937 5936 5935 5935 5934 5933 5932 5931
5949 5949 5950 5951 5951 5952 5953 5954 5954 5955 5956 5957 5958 5958 5959 5959 5959 5960 5960 5960 5960 5960 5961 5961 5961 5961 5961 5961 5961 5961 5961 5961 5961 5960 5960 5960 5959 5959 5958 5958 5958 5957 5957 5957 5957 5957 5956 5956 5955 5954 5954 5954 5953 5953 5953 5953 5952 5952 5950 5950 5949 5948 5946 5945 5945 5944 5944 5943 5942 5942 5941 5940 5940 5939 5938 5937 5937 5935 5934 5933 5932 5931 5930 5930 5929
5946 5947 5948 5949 5950 5951 5951 5952 5952 5953 5954 5955 5956 5956 5957 5957 5958 5958 5959 5959 5959 5959 5959 5959 5959 5959 5959 5960 5960 5959 5959 5959 5959 5959 5958 5958 5957 5957 5956 5956 5956 5955 5955 5955 5955 5955 5955 5954 5953 5953 5952 5952 5951 5951 5950 5950 5950 5949 5948 5947 5947 5946 5945 5943 5942 5942 5941 5941 5940 5939 5938 5938 5937 5937 5936 5935 5934 5933 5932 5930 5929 5928 5928 5927 5926
5944 5945 5946 5946 5948 5948 5949 5950 5951 5952 5953 5953 5954 5954 5955 5955 5956 5957 5957 5957 5957 5958 5958 5958 5958 5958 5958 5958 5958 5958 5958 5958 5958 5958 5957 5956 5956 5955 5955 5954 5954 5954 5953 5953 5953 5953 5953 5952 5952 5951 5950 5949 5949 5949 5948 5948 5948 5947 5946 5946 5945 5944 5942 5941 5940 5940 5940 5939 5937 5936 5936 5936 5935 5934 5934 5933 5932 5931 5930 5929 5928 5926 5925 5924 5924
5942 5943 5943 5944 5945 5946 5947 5948 5949 5950 5951 5951 5952 5952 5953 5953 5954 5954 5955 5955 5955 5956 5956 5956 5956 5956 5957 5957 5957 5957 5958 5957 5957 5957 5956 5955 5954 5954 5953 5953 5953 5952 5952 5951 5951 5951 5951 5950 5950 5949 5948 5948 5947 5947 5946 5946 5946 5945 5944 5944 5943 5942 5941 5939 5938 5939 5939 5938 5936 5935 5934 5934 5934 5933 5932 5931 5931 5930 5929 5928 5927 5925 5924 5923 5921
5939 5940 5941 5942 5942 5944 5945 5946 5948 5949 5949 5949 5950 5950 5950 5951 5951 5952 5952 5953 5953 5953 5954 5954 5954 5954 5955 5955 5956 5956 5956 5955 5955 5955 5954 5953 5952 5952 5952 5951 5951 5950 5950 5950 5950 5950 5949 5948 5947 5947 5946 5946 5945 5945 5945 5944 5944 5943 5943 5942 5941 5940 5939 5938 5936 5936 5937 5937 5936 5934 5932 5933 5932 5931 5930 5930 5929 5928 5927 5926 5926 5925 5923 5922 5920
5936 5937 5938 5939 5940 5941 5943 5945 5946 5947 5946 5947 5948 5948 5948 5948 5948 5949 5950 5950 5950 5951 5951 5951 5952 5952 5953 5954 5955 5954 5953 5953 5953 5952 5952 5951 5950 5950 5950 5949 5949 5949 5948 5948 5948 5948 5947 5946 5945 5945 5944 5944 5943 5943 5943 5942 5942 5941 5941 5940 5939 5938 5938 5937 5935 5934 5934 5935 5934 5932 5930 5930 5930 5929 5928 5928 5927 5926 5925 5924 5924 5923 5922 5921 5919
5933 5935 5935 5936 5937 5939 5941 5943 5944 5944 5944 5945 5945 5945 5945 5946 5946 5946 5947 5947 5947 5948 5948 5949 5950 5950 5951 5952 5952 5951 5951 5951 5951 5950 5949 5949 5948 5948 5948 5947 5947 5946 5946 5946 5946 5945 5944 5943 5942 5942 5942 5942 5941 5941 5941 5941 5940 5939 5938 5937 5937 5937 5936 5936 5935 5933 5932 5932 5932 5931 5929 5928 5928 5927 5926 5925 5924 5923 5922 5922 5921 5921 5920 5918 5917
5930 5931 5931 5932 5934 5936 5938 5939 5940 5940 5941 5941 5941 5942 5942 5943 5943 5943 5944 5944 5944 5945 5947 5947 5948 5948 5948 5948 5949 5948 5948 5948 5948 5947 5947 5946 5946 5945 5945 5944 5944 5944 5944 5944 5943 5942 5941 5941 5940 5940 5940 5940 5940 5939 5939 5939 5938 5936 5936 5935 5935 5935 5934 5934 5933 5932 5931 5930 5930 5930 5928 5927 5927 5925 5923 5922 5921 5920 5920 5919 5918 5918 5917 5916 5915
5927 5927 5928 5929 5931 5932 5934 5935 5935 5936 5937 5937 5937 5938 5938 5939 5939 5940 5940 5940 5941 5943 5945 5945 5944 5945 5945 5945 5945 5945 5945 5945 5945 5944 5944 5943 5943 5942 5942 5942 5941 5941 5941 5941 5941 5940 5939 5938 5938 5937 5937 5937 5937 5937 5937 5936 5935 5934 5934 5933 5933 5933 5932 5931 5930 5929 5928 5928 5928 5928 5927 5926 5925 5923 5921 5920 5918 5917 5917 5916 5916 5915 5914 5913 5912
5924 5924 5924 5926 5928 5929 5931 5932 5932 5933 5933 5934 5934 5934 5935 5935 5936 5936 5937 5937 5939 5941 5941 5940 5940 5941 5941 5941 5941 5941 5942 5942 5941 5941 5941 5940 5940 5940 5939 5939 5938 5938 5939 5938 5938 5937 5936 5935 5935 5934 5934 5934 5935 5935 5934 5933 5933 5932 5932 5932 5932 5931 5930 5929 5927 5926 5925 5925 5926 5926 5925 5924 5923 5921 5919 5918 5916 5915 5914 5914 5913 5912 5912 5911 5909
5921 5921 5921 5923 5925 5926 5928 5929 5930 5931 5931 5931 5930 5931 5931 5931 5932 5933 5933 5935 5936 5937 5937 5937 5937 5937 5937 5937 5937 5938 5938 5938 5938 5937 5937 5937 5937 5937 5936 5936 5935 5935 5936 5935 5935 5934 5933 5933 5932 5932 5932 5932 5932 5932 5931 5930 5930 5930 5930 5930 5930 5929 5928 5927 5925 5923 5923 5922 5923 5923 5922 5921 5920 5919 5917 5916 5914 5913 5912 5911 5910 5910 5909 5908 5906
5918 5918 5918 5919 5921 5923 5924 5925 5926 5927 5928 5927 5927 5927 5928 5928 5928 5929 5930 5931 5932 5933 5933 5933 5933 5933 5933 5933 5933 5933 5934 5934 5933 5933 5934 5934 5934 5934 5933 5933 5932 5932 5932 5932 5931 5931 5930 5930 5929 5929 5929 5930 5930 5929 5928 5927 5927 5927 5927 5927 5927 5927 5926 5924 5923 5921 5920 5920 5920 5919 5919 5918 5918 5917 5916 5914 5912 5911 5909 5908 5908 5907 5906 5904 5903
5914 5915 5915 5916 5917 5919 5920 5921 5922 5923 5923 5924 5924 5923 5923 5924 5924 5925 5926 5927 5927 5927 5928 5928 5929 5929 5929 5929 5929 5929 5929 5930 5930 5930 5930 5930 5930 5930 5930 5930 5929 5929 5929 5928 5928 5928 5927 5926 5926 5926 5927 5927 5927 5926 5924 5924 5924 5923 5923 5924 5924 5923 5923 5921 5920 5919 5918 5917 5917 5917 5916 5915 5915 5915 5914 5912 5910 5908 5907 5906 5905 5904 5903 5902 5900
5911 5911 5912 5913 5913 5914 5915 5917 5918 5918 5919 5919 5920 5920 5919 5919 5920 5921 5922 5922 5921 5922 5922 5923 5923 5924 5924 5925 5924 5925 5925 5925 5925 5926 5926 5926 5927 5927 5927 5926 5926 5926 5925 5925 5925 5924 5923 5922 5922 5922 5923 5923 5923 5922 5920 5920 5920 5919 5919 5920 5920 5920 5919 5918 5917 5916 5915 5915 5915 5914 5913 5912 5911 5911 5911 5910 5907 5905 5903 5902 5901 5901 5900 5899 5897